VIASAT-3 F2

Last updated on Sat Aug 15 2026 00:03:03 GMT+0000 (Coordinated Universal Time)

1 66454U 25261A 26225.19797691 .00000000 00000+0 00000+0 0 9995 2 66454 0.0113 245.1256 0000768 343.4510 85.3789 1.00268998 3363
UTC large
Height (km)
Speed (km/s)
/
Latitude / Longitude
Inclination (degrees)
Orbital Period (minutes)
Azimuth
Elevation
Range (km)
Doppler Factor

Next 0 passes for location: London (51.5072 / 0.1276)

No passes found over London.
VIASAT-3 F2